SCP
-0 -0 -0 0 -0 -0 -0 -0 -0 -0 -0 -0 -0 -0 -0 -0 -0 -0 -0 -0 -0 -0 -0 -0 -0 -0 -0 -0 -0 -0 -0 -0 -0 -0 -0 -0 -0 -0 -0 -0 -0 -0 -0
-0 -0 -0 -0 -0 -0 -0 -0 -0 -0 -0 -0 -0 -0 -0 -0 -0 -0 -0 -0 -0 -0 -0 -0 -0 -0 -0 -0 -0 -0 -0 -0 -0 -0 -0 -0 -0 -0 -0 -0 -0 0 0
-0 -0 -0 -0 -0 -0 -0 -0 -0 -0 -0 -0 -0 -0 -0 -0 -0 -0 -0 -0 -0 -0 -0 -0 -0 -0 -0 -0 -0 -0 -0 -0 -0 -0 -0 0 0 -0 -0 -0 0 0 0
-0 -0 -0 -0 -0 -0 -0 -0 -0 -0 -0 -0 -0 -0 -0 -0 -0 -0 -0 -0 -0 -0 -0 -0 -0 -0 -0 -0 -0 -0 -0 -0 -0 -0 0 0 0 0 -0 0 0 0 0
-0 -0 -0 -0 -0 -0 -0 -0 -0 -0 -0 -0 -0 -0 -0 -0 -0 -0 -0 -0 -0 -0 -0 -0 -0 -0 -0 -0 -0 -0 -0 -0 0 0 0 0 0 0 0 0 0 0 0
-0 -0 -0 -0 -0 -0 -0 -0 -0 -0 -0 -0 -0 -0 -0 -0 -0 -0 -0 -0 -0 -0 -0 -0 -0 -0 -0 -0 -0 -0 -0 0 0 0 0 0 0 0 0 0 0 0 0
0 -0 -0 -0 -0 -0 -0 -0 -0 -0 -0 -0 -0 -0 -0 -0 -0 -0 -0 -0 -0 -0 -0 -0 -0 -0 -0 -0 -0 -0 -0 0 0 0 0 0 0 0 0 0 0 0 0
0 -0 -0 -0 -0 -0 -0 -0 -0 -0 -0 -0 -0 -0 -0 -0 -0 -0 -0 -0 -0 -0 -0 -0 -0 -0 -0 -0 -0 -0 0 0 0 0 0 0 0 0 0 0 0 0 0
0 0 0 -0 -0 -0 -0 -0 -0 -0 -0 -0 -0 -0 -0 -0 -0 -0 -0 -0 -0 -0 -0 -0 -0 -0 -0 -0 -0 0 0 0 0 0 0 0 0 0 0 0 0 0 0
0 0 0 0 -0 -0 -0 -0 -0 -0 -0 -0 -0 -0 -0 -0 -0 -0 -0 -0 -0 -0 -0 -0 -0 -0 -0 -0 -0 0 0 0 0 0 0 0 -0 0 0 -0 -0 -0 0
0 0 0 0 0 -0 -0 -0 -0 -0 -0 -0 -0 -0 -0 -0 -0 -0 -0 -0 -0 -0 -0 -0 -0 -0 -0 -0 0 0 0 0 0 0 0 0 0 -0 -0 -0 -0 -0 -0
0 0 0 0 0 0 0 -0 -0 -0 -0 0 -0 -0 -0 -0 -0 -0 -0 -0 -0 -0 -0 -0 -0 -0 0 0 0 0 0 0 0 0 0 0 0 -0 -0 -0 -0 -0 -0
1 1 0 0 0 0 0 0 0 0 0 0 0 0 -0 -0 -0 -0 0 0 0 -0 -0 -0 0 0 0 0 0 0 0 0 0 0 0 0 0 -0 -0 -0 -0 -0 -0
0 0 0 0 0 0 0 0 0 0 0 0 0 0 0 0 -0 -0 0 0 0 0 -0 0 0 0 0 0 0 0 0 0 0 0 0 0 0 -0 -0 -0 -0 -0 0
0 0 0 0 0 0 0 0 0 0 0 0 0 0 0 0 0 0 0 0 0 0 0 0 0 0 0 0 0 0 0 -0 0 0 0 -0 -0 -0 -0 -0 -0 -0 -0
0 0 0 0 0 0 0 0 0 0 0 0 0 0 0 0 0 0 0 0 0 0 0 0 0 0 0 0 0 0 0 0 0 0 0 0 -0 -0 -0 -0 -0 -0 -0
0 0 0 0 0 0 0 0 0 0 0 0 0 0 0 0 0 0 0 0 0 0 0 0 0 0 0 0 0 0 0 0 0 0 0 0 0 -0 -0 -0 -0 -0 0
0 0 0 0 0 0 0 0 0 0 0 0 0 0 0 0 0 0 0 0 0 0 0 0 0 0 0 0 0 0 0 0 0 0 0 0 0 0 0 -0 -0 0 0
1 1 0 0 0 0 0 0 0 0 0 0 0 0 0 0 0 0 0 0 0 0 0 0 0 0 0 0 0 0 0 0 0 0 0 0 0 0 0 0 -0 -0 0
1 1 0 0 0 0 0 0 0 0 0 0 0 0 0 0 0 0 0 -0 0 0 0 0 0 0 0 -0 0 0 0 0 0 0 0 0 0 0 0 0 0 0 0
1 1 0 0 0 0 0 0 0 0 0 0 0 0 0 0 0 0 0 0 0 0 0 0 0 0 0 -0 0 0 0 0 0 0 0 0 0 0 0 0 0 0 0
1 1 0 0 0 0 0 0 0 0 0 0 0 0 0 0 0 0 0 0 0 0 0 0 0 0 0 -0 0 0 0 0 0 0 0 0 0 0 0 0 0 0 0
1 1 1 1 0 0 0 0 0 0 0 0 0 0 0 0 0 0 0 0 0 0 0 0 0 0 0 0 -0 0 0 0 0 0 0 0 0 0 0 0 0 0 0
1 1 1 1 0 0 0 0 0 0 0 0 0 0 0 0 0 0 0 0 0 0 0 0 0 0 0 -0 0 0 0 0 0 0 0 0 0 0 0 0 0 0 0
1 1 0 1 0 0 0 0 0 0 0 0 0 0 0 0 0 0 0 0 0 0 0 0 0 0 0 0 0 0 0 0 0 0 0 0 0 0 0 0 0 0 0
1 1 1 0 0 0 0 0 0 -0 0 0 0 0 0 0 0 0 0 0 0 0 0 0 0 0 0 0 0 0 0 0 0 0 0 0 0 0 0 0 0 0 0
Wind_Speed_500mb
57 53 54 48 41 38 39 42 44 43 43 42 40 42 41 40 38 41 40 37 36 37 45 43 46 42 40 37 34 31 31 29 29 28 29 30 30 23 21 20 20 20 17
64 57 58 50 45 43 41 43 45 45 44 43 43 43 42 43 45 43 39 40 42 44 45 44 41 38 32 29 28 28 27 25 22 18 18 25 29 36 34 32 39 40 42
64 60 58 52 49 48 46 44 44 44 45 45 46 47 48 47 43 38 37 42 42 40 40 38 36 32 31 29 27 25 24 22 17 15 22 44 45 42 47 50 48 49 50
65 62 60 54 51 50 48 46 44 43 44 47 51 51 48 44 39 36 37 40 39 36 35 32 29 27 28 26 26 26 25 23 19 22 39 49 51 50 48 49 49 49 50
65 62 60 56 53 50 49 47 47 46 48 51 52 50 46 40 36 35 35 38 38 36 27 27 27 25 27 25 26 26 24 23 27 42 46 47 46 46 47 46 48 47 47
65 61 59 56 53 51 49 47 46 49 52 53 51 48 43 39 36 34 33 37 35 31 26 26 25 25 27 27 25 25 26 29 44 46 47 47 47 45 44 46 45 46 44
65 62 60 56 53 51 48 47 48 51 53 52 49 46 42 39 36 35 34 31 29 27 25 24 24 24 25 25 25 27 30 36 46 45 48 51 46 46 44 45 44 43 45
65 64 59 56 53 51 48 48 50 53 53 51 48 45 42 39 36 35 32 26 25 27 24 22 22 21 20 22 24 28 30 43 46 46 48 46 45 45 45 44 45 46 43
62 64 60 57 54 51 50 50 52 54 53 50 48 45 42 38 35 36 31 27 28 26 22 19 19 18 16 19 23 28 30 44 48 47 46 43 44 43 44 45 44 44 41
62 64 64 58 58 54 51 51 53 54 53 50 46 44 41 38 35 38 37 31 28 24 21 18 16 13 17 22 24 28 40 48 44 41 44 46 41 43 42 42 43 40 42
67 67 65 62 62 58 56 54 53 53 52 49 46 44 42 40 40 40 35 32 29 22 19 15 11 14 22 28 30 34 39 40 44 44 44 40 41 42 40 42 43 42 43
72 68 67 62 66 62 59 58 58 56 54 53 50 47 44 44 42 39 36 33 32 24 19 16 20 28 31 38 37 36 40 42 46 44 41 40 41 41 38 39 39 39 40
80 75 70 68 67 65 64 63 62 61 57 54 50 48 44 46 45 46 44 39 32 27 24 24 30 34 38 39 39 40 40 40 39 41 38 37 39 40 37 36 36 38 37
81 77 74 70 69 68 68 66 64 63 60 56 53 48 47 47 48 48 44 40 31 30 27 28 32 36 37 37 37 38 38 39 40 41 40 36 38 33 32 35 35 37 34
78 82 78 74 71 72 70 69 67 63 60 58 55 49 48 49 50 49 44 40 33 32 29 30 32 34 33 33 35 33 34 34 35 36 37 38 36 31 32 32 31 31 31
67 75 79 75 72 73 72 71 68 65 62 59 55 50 49 50 50 48 46 39 35 33 30 28 30 31 31 32 33 31 30 29 27 26 28 24 25 36 31 30 29 27 30
75 77 80 75 71 72 74 72 68 67 62 58 54 50 49 50 50 50 47 44 39 34 30 29 29 28 29 33 33 32 30 28 27 26 26 26 22 22 28 36 31 21 23
83 84 81 78 74 70 77 73 69 66 62 59 55 52 50 49 53 51 52 48 44 37 32 28 27 28 29 32 34 34 29 27 27 28 28 27 23 22 20 25 39 24 13
82 87 81 82 80 75 78 75 66 65 65 61 57 55 51 51 51 54 53 51 48 41 35 31 29 23 29 35 34 32 29 27 27 27 26 25 23 22 21 21 20 19 21
71 87 86 84 81 79 78 73 65 67 68 63 59 54 54 51 50 57 56 53 52 45 38 35 29 31 31 36 36 31 29 27 25 24 24 23 22 21 20 19 18 15 14
68 76 88 90 86 80 77 74 72 74 72 66 63 56 57 52 50 58 58 56 54 49 40 41 38 33 40 38 39 33 28 24 22 21 19 19 18 17 18 17 17 14 12
75 77 82 90 92 83 79 71 74 74 72 69 66 63 60 59 54 57 56 59 58 53 49 48 45 39 39 43 39 31 17 18 20 19 17 14 14 12 14 15 15 13 10
77 80 82 87 97 92 81 71 69 70 70 73 74 71 68 64 60 58 54 59 63 57 53 50 51 39 40 49 43 20 14 13 24 24 20 16 12 9 10 11 12 12 10
70 77 80 87 88 95 85 87 69 75 81 82 79 76 76 66 60 62 56 58 63 58 58 57 51 46 43 46 52 38 17 13 18 16 27 22 17 11 7 6 7 8 8
59 71 83 88 92 89 91 65 43 81 81 80 80 82 80 74 65 62 62 58 65 61 61 60 53 51 47 46 54 48 25 19 18 13 18 31 25 19 13 9 4 3 5
57 65 76 95 87 95 91 78 57 57 85 89 89 90 88 80 77 72 68 64 65 66 66 59 53 50 49 49 53 49 31 23 19 14 13 23 24 27 23 16 9 5 3
Wind_Direction_500mb
176 171 167 168 165 161 158 154 155 154 152 151 149 145 141 135 130 126 121 115 106 97 100 104 103 108 105 102 98 93 90 89 88 87 90 92 87 82 84 82 75 77 85
170 170 165 167 165 163 161 155 154 154 153 152 149 146 140 135 131 128 121 111 104 108 108 109 108 96 88 89 91 83 74 67 64 61 62 82 82 76 79 77 79 74 73
172 169 166 168 166 164 162 159 156 154 153 151 147 142 138 134 132 129 121 114 114 111 112 112 101 89 86 85 79 67 56 50 48 53 78 85 82 81 83 83 84 81 79
172 169 168 169 168 166 164 162 159 157 153 149 144 140 138 137 134 127 117 117 117 118 116 110 97 90 80 73 70 60 55 51 62 93 94 91 87 83 81 83 85 84 82
173 171 170 170 170 168 167 164 162 159 154 148 145 143 143 141 136 128 123 122 124 125 124 111 100 85 75 75 69 60 55 65 95 89 87 85 81 80 84 85 84 81 78
173 171 171 173 172 171 170 167 164 160 154 151 149 149 147 144 140 132 128 130 136 134 120 108 98 84 75 69 59 52 67 89 91 89 91 85 86 85 84 85 81 80 78
172 171 172 175 174 174 172 170 166 162 158 156 154 152 150 148 142 136 135 142 139 128 115 106 94 83 75 63 54 66 84 97 91 92 90 87 84 85 84 82 85 81 79
175 171 172 176 177 177 175 171 167 164 162 160 159 156 154 154 149 143 148 150 137 121 115 103 92 83 70 56 65 80 93 93 90 88 85 87 84 84 83 82 81 81 76
175 173 171 176 179 179 177 173 170 168 166 165 164 163 160 159 156 142 156 159 129 122 115 102 98 86 68 71 85 93 101 101 92 91 91 87 88 84 82 82 79 80 76
177 177 174 176 180 179 177 175 173 171 170 169 168 167 165 163 157 149 149 139 131 125 114 96 99 88 83 95 97 104 110 92 94 90 92 91 89 86 84 81 82 77 76
180 180 180 178 181 180 178 176 175 174 173 170 171 173 170 165 154 152 154 139 135 129 116 108 94 91 106 106 105 110 104 96 90 96 93 91 92 87 83 80 78 75 75
182 181 184 182 182 180 179 177 177 176 176 175 176 176 175 166 160 155 150 144 138 137 134 112 98 108 115 111 110 110 102 100 94 90 91 88 89 87 81 79 80 74 76
184 185 184 187 184 182 182 182 180 180 179 179 179 179 177 167 160 157 157 153 151 149 135 118 114 116 115 112 113 108 106 100 97 96 89 90 83 85 78 81 80 75 73
187 187 189 190 187 186 186 187 184 184 183 182 182 185 180 169 165 167 166 163 158 149 135 125 120 120 115 115 114 112 107 103 102 101 98 92 88 87 85 79 80 79 78
192 192 192 192 191 189 191 191 190 189 188 187 187 186 183 177 174 175 171 167 156 150 141 130 125 123 121 120 119 117 111 104 104 102 105 107 101 93 82 76 81 79 68
193 195 196 195 195 194 195 196 195 193 193 193 192 190 187 185 183 181 173 166 161 156 144 135 129 128 127 126 125 122 115 113 111 108 109 101 103 111 102 83 73 66 64
201 201 202 200 199 198 199 202 200 197 196 198 196 194 192 192 188 186 177 168 170 164 155 145 139 136 132 134 128 122 116 112 112 114 112 110 109 97 106 108 89 55 59
209 208 205 204 203 202 203 206 205 200 199 200 200 197 196 195 195 189 183 177 176 172 169 156 152 146 143 141 133 125 119 117 116 111 109 110 106 96 89 103 111 109 57
220 215 209 209 206 203 208 208 208 203 201 202 204 201 199 196 198 194 191 186 183 180 179 172 163 163 155 150 142 134 125 124 117 107 107 105 102 98 95 95 100 113 105
223 221 212 210 210 206 212 209 208 204 204 204 207 205 200 195 197 196 199 195 191 189 188 185 181 169 169 163 152 142 133 130 124 115 107 105 100 97 95 91 93 88 88
225 219 218 209 211 213 216 210 207 204 205 204 207 208 202 200 200 201 203 202 200 202 199 191 184 189 177 176 165 152 146 141 137 129 119 111 104 99 97 91 86 88 90
225 222 218 213 212 209 216 214 211 207 208 209 208 207 207 205 203 203 206 209 208 206 204 199 193 191 192 184 181 160 151 171 170 159 148 133 123 115 103 93 86 82 92
220 223 215 219 215 212 205 212 213 210 211 211 212 210 214 214 209 208 208 214 212 213 214 208 204 206 214 196 196 172 165 190 178 193 183 174 163 141 112 99 88 77 77
219 223 226 216 220 210 206 200 213 216 213 216 215 212 215 223 216 214 214 216 215 220 218 216 214 213 226 213 198 205 210 210 178 187 204 201 196 186 163 131 95 71 65
226 223 219 214 220 209 206 198 198 226 224 222 220 217 218 220 224 222 222 220 217 221 224 222 217 221 224 228 212 204 211 196 202 185 193 210 210 208 203 203 176 82 49
232 222 220 212 221 210 208 210 211 211 222 224 222 221 218 220 221 223 225 225 219 222 227 223 224 230 229 225 221 212 220 210 211 201 192 196 207 218 215 216 218 235 323
Wind_Speed_850mb
57 53 54 48 41 38 39 42 44 43 43 42 40 42 41 40 38 41 40 37 36 37 45 43 46 42 40 37 34 31 31 29 29 28 29 30 30 23 21 20 20 20 17
64 57 58 50 45 43 41 43 45 45 44 43 43 43 42 43 45 43 39 40 42 44 45 44 41 38 32 29 28 28 27 25 22 18 18 25 29 36 34 32 39 40 42
64 60 58 52 49 48 46 44 44 44 45 45 46 47 48 47 43 38 37 42 42 40 40 38 36 32 31 29 27 25 24 22 17 15 22 44 45 42 47 50 48 49 50
65 62 60 54 51 50 48 46 44 43 44 47 51 51 48 44 39 36 37 40 39 36 35 32 29 27 28 26 26 26 25 23 19 22 39 49 51 50 48 49 49 49 50
65 62 60 56 53 50 49 47 47 46 48 51 52 50 46 40 36 35 35 38 38 36 27 27 27 25 27 25 26 26 24 23 27 42 46 47 46 46 47 46 48 47 47
65 61 59 56 53 51 49 47 46 49 52 53 51 48 43 39 36 34 33 37 35 31 26 26 25 25 27 27 25 25 26 29 44 46 47 47 47 45 44 46 45 46 44
65 62 60 56 53 51 48 47 48 51 53 52 49 46 42 39 36 35 34 31 29 27 25 24 24 24 25 25 25 27 30 36 46 45 48 51 46 46 44 45 44 43 45
65 64 59 56 53 51 48 48 50 53 53 51 48 45 42 39 36 35 32 26 25 27 24 22 22 21 20 22 24 28 30 43 46 46 48 46 45 45 45 44 45 46 43
62 64 60 57 54 51 50 50 52 54 53 50 48 45 42 38 35 36 31 27 28 26 22 19 19 18 16 19 23 28 30 44 48 47 46 43 44 43 44 45 44 44 41
62 64 64 58 58 54 51 51 53 54 53 50 46 44 41 38 35 38 37 31 28 24 21 18 16 13 17 22 24 28 40 48 44 41 44 46 41 43 42 42 43 40 42
67 67 65 62 62 58 56 54 53 53 52 49 46 44 42 40 40 40 35 32 29 22 19 15 11 14 22 28 30 34 39 40 44 44 44 40 41 42 40 42 43 42 43
72 68 67 62 66 62 59 58 58 56 54 53 50 47 44 44 42 39 36 33 32 24 19 16 20 28 31 38 37 36 40 42 46 44 41 40 41 41 38 39 39 39 40
80 75 70 68 67 65 64 63 62 61 57 54 50 48 44 46 45 46 44 39 32 27 24 24 30 34 38 39 39 40 40 40 39 41 38 37 39 40 37 36 36 38 37
81 77 74 70 69 68 68 66 64 63 60 56 53 48 47 47 48 48 44 40 31 30 27 28 32 36 37 37 37 38 38 39 40 41 40 36 38 33 32 35 35 37 34
78 82 78 74 71 72 70 69 67 63 60 58 55 49 48 49 50 49 44 40 33 32 29 30 32 34 33 33 35 33 34 34 35 36 37 38 36 31 32 32 31 31 31
67 75 79 75 72 73 72 71 68 65 62 59 55 50 49 50 50 48 46 39 35 33 30 28 30 31 31 32 33 31 30 29 27 26 28 24 25 36 31 30 29 27 30
75 77 80 75 71 72 74 72 68 67 62 58 54 50 49 50 50 50 47 44 39 34 30 29 29 28 29 33 33 32 30 28 27 26 26 26 22 22 28 36 31 21 23
83 84 81 78 74 70 77 73 69 66 62 59 55 52 50 49 53 51 52 48 44 37 32 28 27 28 29 32 34 34 29 27 27 28 28 27 23 22 20 25 39 24 13
82 87 81 82 80 75 78 75 66 65 65 61 57 55 51 51 51 54 53 51 48 41 35 31 29 23 29 35 34 32 29 27 27 27 26 25 23 22 21 21 20 19 21
71 87 86 84 81 79 78 73 65 67 68 63 59 54 54 51 50 57 56 53 52 45 38 35 29 31 31 36 36 31 29 27 25 24 24 23 22 21 20 19 18 15 14
68 76 88 90 86 80 77 74 72 74 72 66 63 56 57 52 50 58 58 56 54 49 40 41 38 33 40 38 39 33 28 24 22 21 19 19 18 17 18 17 17 14 12
75 77 82 90 92 83 79 71 74 74 72 69 66 63 60 59 54 57 56 59 58 53 49 48 45 39 39 43 39 31 17 18 20 19 17 14 14 12 14 15 15 13 10
77 80 82 87 97 92 81 71 69 70 70 73 74 71 68 64 60 58 54 59 63 57 53 50 51 39 40 49 43 20 14 13 24 24 20 16 12 9 10 11 12 12 10
70 77 80 87 88 95 85 87 69 75 81 82 79 76 76 66 60 62 56 58 63 58 58 57 51 46 43 46 52 38 17 13 18 16 27 22 17 11 7 6 7 8 8
59 71 83 88 92 89 91 65 43 81 81 80 80 82 80 74 65 62 62 58 65 61 61 60 53 51 47 46 54 48 25 19 18 13 18 31 25 19 13 9 4 3 5
57 65 76 95 87 95 91 78 57 57 85 89 89 90 88 80 77 72 68 64 65 66 66 59 53 50 49 49 53 49 31 23 19 14 13 23 24 27 23 16 9 5 3
Wind_Direction_850mb
176 171 167 168 165 161 158 154 155 154 152 151 149 145 141 135 130 126 121 115 106 97 100 104 103 108 105 102 98 93 90 89 88 87 90 92 87 82 84 82 75 77 85
170 170 165 167 165 163 161 155 154 154 153 152 149 146 140 135 131 128 121 111 104 108 108 109 108 96 88 89 91 83 74 67 64 61 62 82 82 76 79 77 79 74 73
172 169 166 168 166 164 162 159 156 154 153 151 147 142 138 134 132 129 121 114 114 111 112 112 101 89 86 85 79 67 56 50 48 53 78 85 82 81 83 83 84 81 79
172 169 168 169 168 166 164 162 159 157 153 149 144 140 138 137 134 127 117 117 117 118 116 110 97 90 80 73 70 60 55 51 62 93 94 91 87 83 81 83 85 84 82
173 171 170 170 170 168 167 164 162 159 154 148 145 143 143 141 136 128 123 122 124 125 124 111 100 85 75 75 69 60 55 65 95 89 87 85 81 80 84 85 84 81 78
173 171 171 173 172 171 170 167 164 160 154 151 149 149 147 144 140 132 128 130 136 134 120 108 98 84 75 69 59 52 67 89 91 89 91 85 86 85 84 85 81 80 78
172 171 172 175 174 174 172 170 166 162 158 156 154 152 150 148 142 136 135 142 139 128 115 106 94 83 75 63 54 66 84 97 91 92 90 87 84 85 84 82 85 81 79
175 171 172 176 177 177 175 171 167 164 162 160 159 156 154 154 149 143 148 150 137 121 115 103 92 83 70 56 65 80 93 93 90 88 85 87 84 84 83 82 81 81 76
175 173 171 176 179 179 177 173 170 168 166 165 164 163 160 159 156 142 156 159 129 122 115 102 98 86 68 71 85 93 101 101 92 91 91 87 88 84 82 82 79 80 76
177 177 174 176 180 179 177 175 173 171 170 169 168 167 165 163 157 149 149 139 131 125 114 96 99 88 83 95 97 104 110 92 94 90 92 91 89 86 84 81 82 77 76
180 180 180 178 181 180 178 176 175 174 173 170 171 173 170 165 154 152 154 139 135 129 116 108 94 91 106 106 105 110 104 96 90 96 93 91 92 87 83 80 78 75 75
182 181 184 182 182 180 179 177 177 176 176 175 176 176 175 166 160 155 150 144 138 137 134 112 98 108 115 111 110 110 102 100 94 90 91 88 89 87 81 79 80 74 76
184 185 184 187 184 182 182 182 180 180 179 179 179 179 177 167 160 157 157 153 151 149 135 118 114 116 115 112 113 108 106 100 97 96 89 90 83 85 78 81 80 75 73
187 187 189 190 187 186 186 187 184 184 183 182 182 185 180 169 165 167 166 163 158 149 135 125 120 120 115 115 114 112 107 103 102 101 98 92 88 87 85 79 80 79 78
192 192 192 192 191 189 191 191 190 189 188 187 187 186 183 177 174 175 171 167 156 150 141 130 125 123 121 120 119 117 111 104 104 102 105 107 101 93 82 76 81 79 68
193 195 196 195 195 194 195 196 195 193 193 193 192 190 187 185 183 181 173 166 161 156 144 135 129 128 127 126 125 122 115 113 111 108 109 101 103 111 102 83 73 66 64
201 201 202 200 199 198 199 202 200 197 196 198 196 194 192 192 188 186 177 168 170 164 155 145 139 136 132 134 128 122 116 112 112 114 112 110 109 97 106 108 89 55 59
209 208 205 204 203 202 203 206 205 200 199 200 200 197 196 195 195 189 183 177 176 172 169 156 152 146 143 141 133 125 119 117 116 111 109 110 106 96 89 103 111 109 57
220 215 209 209 206 203 208 208 208 203 201 202 204 201 199 196 198 194 191 186 183 180 179 172 163 163 155 150 142 134 125 124 117 107 107 105 102 98 95 95 100 113 105
223 221 212 210 210 206 212 209 208 204 204 204 207 205 200 195 197 196 199 195 191 189 188 185 181 169 169 163 152 142 133 130 124 115 107 105 100 97 95 91 93 88 88
225 219 218 209 211 213 216 210 207 204 205 204 207 208 202 200 200 201 203 202 200 202 199 191 184 189 177 176 165 152 146 141 137 129 119 111 104 99 97 91 86 88 90
225 222 218 213 212 209 216 214 211 207 208 209 208 207 207 205 203 203 206 209 208 206 204 199 193 191 192 184 181 160 151 171 170 159 148 133 123 115 103 93 86 82 92
220 223 215 219 215 212 205 212 213 210 211 211 212 210 214 214 209 208 208 214 212 213 214 208 204 206 214 196 196 172 165 190 178 193 183 174 163 141 112 99 88 77 77
219 223 226 216 220 210 206 200 213 216 213 216 215 212 215 223 216 214 214 216 215 220 218 216 214 213 226 213 198 205 210 210 178 187 204 201 196 186 163 131 95 71 65
226 223 219 214 220 209 206 198 198 226 224 222 220 217 218 220 224 222 222 220 217 221 224 222 217 221 224 228 212 204 211 196 202 185 193 210 210 208 203 203 176 82 49
232 222 220 212 221 210 208 210 211 211 222 224 222 221 218 220 221 223 225 225 219 222 227 223 224 230 229 225 221 212 220 210 211 201 192 196 207 218 215 216 218 235 323